Home > Weather > Saint-Jérôme > Past weeks

Flag for Canada Past Weather in Saint-Jérôme, Quebec, Canada — Yesterday and Last 2 Weeks

Now
75 °F

Partly sunny.


Feels Like: 76 °F
Forecast: N/A
Wind: No wind

Location: Montreal / Mirabel

Current Time: May 29, 2016 at 7:18:04 PM

Latest Report: May 29, 2016 at 7:00 PM


Visibility: 25 mi

Pressure: 29.94 "Hg

Humidity: 78%

Dew Point: 68 °F

Location of Saint-JérômeLocation

Past Weather in Saint-Jérôme — Graph

°F

Saint-Jérôme Temperature Yesterday

Maximum temperature yesterday: 81 °F (at 5:00 PM)
Minimum temperature yesterday: 61 °F (at 5:00 AM)
Average temperature yesterday: 71 °F

High & Low Weather Summary for the Past Weeks

 TemperatureHumidityPressure
High86 °F (May 27, 2:00 PM)100% (May 20, 5:00 AM)30.24 "Hg (May 20, 5:00 AM)
Low34 °F (May 15, 11:00 PM)20% (May 24, 4:00 PM)29.51 "Hg (May 14, 7:00 PM)
Average59 °F61%29.98 "Hg
* Reported May 14 6:00 PM — May 29 6:00 PM, Saint-Jérôme, Weather by CustomWeather, © 2016

Note: Actual official high and low records may vary slightly from our data, if they occured in-between our weather recording intervals... More about our weather records

Advertising

Saint-Jérôme Weather History for the Previous 24 Hours

Scroll right to see more
 ConditionsComfort  
Time TempWeatherWind HumidityBarometerVisibility
6:00 PM
Sun, May 29
79 °FPartly sunny.3 mph65%29.97 "Hg25 mi
5:00 PM77 °FPartly sunny.7 mph69%29.98 "Hg25 mi
4:00 PM75 °FPartly sunny.6 mph69%30.00 "Hg25 mi
3:00 PM75 °FPartly sunny.7 mph74%30.01 "Hg25 mi
2:00 PM70 °FPartly sunny.7 mph73%30.05 "Hg25 mi
1:00 PM66 °FOvercast.3 mph83%30.09 "Hg25 mi
12:00 PM63 °FMore clouds than sun.3 mph88%30.09 "Hg20 mi
11:00 AM63 °FThunderstorms. More clouds than sun.6 mph83%30.11 "Hg15 mi
10:00 AM63 °FOvercast.5 mph77%30.12 "Hg45 mi
9:00 AM61 °FOvercast.7 mph83%30.12 "Hg45 mi
8:00 AM61 °FMostly cloudy.9 mph83%30.12 "Hg45 mi
7:00 AM61 °FPartly sunny.8 mph77%30.11 "Hg45 mi
6:00 AM61 °FPassing clouds.5 mph72%30.12 "Hg45 mi
5:00 AM61 °FPartly cloudy.3 mph68%30.11 "Hg45 mi
4:00 AM63 °FMostly cloudy.6 mph64%30.11 "Hg25 mi
3:00 AM63 °FPassing clouds.6 mph64%30.11 "Hg25 mi
2:00 AM63 °FPassing clouds.5 mph68%30.11 "Hg25 mi
1:00 AM63 °FPassing clouds.5 mph68%30.12 "Hg25 mi
12:00 AM66 °FPartly cloudy.6 mph64%30.12 "Hg25 mi
11:00 PM
Sat, May 28
68 °FPassing clouds.3 mph60%30.11 "Hg25 mi
10:00 PM70 °FPartly cloudy.3 mph57%30.12 "Hg25 mi
9:00 PM72 °FBroken clouds.5 mph53%30.11 "Hg25 mi
8:00 PM75 °FPartly sunny.5 mph50%30.10 "Hg45 mi
7:00 PM77 °FPartly sunny.9 mph51%30.09 "Hg45 mi
Weather by CustomWeather, © 2016

See weather overviewHow to use our weather pages